Home   Weather   Bristol   Past weeks

Flag for United Kingdom Past Weather in Bristol, England, United Kingdom — Yesterday and Last 2 Weeks

Now
57 °F

Drizzle. Partly sunny.


Feels Like: 55 °F
Forecast: 60 / 71 °F
Wind: 9 mph from South

Location: Bristol / Lulsgate

Current Time: Aug 20, 2017 at 8:38:45 pm

Latest Report: Aug 20, 2017 at 7:50 pm


Visibility: 4 mi

Pressure: 30.15 "Hg

Humidity: 100%

Dew Point: 57 °F

Location of BristolLocation

Past Weather in Bristol — Graph

°F

Bristol Temperature Yesterday

Maximum temperature yesterday: 63 °F (at 3:20 pm)
Minimum temperature yesterday: 52 °F (at 5:50 am)
Average temperature yesterday: 57 °F

High & Low Weather Summary for the Past Weeks

 TemperatureHumidityPressure
High68 °F (Aug 14, 2:50 pm)100% (Aug 6, 2:20 am)30.30 "Hg (Aug 6, 2:20 am)
Low48 °F (Aug 11, 4:50 am)56% (Aug 15, 4:20 pm)29.80 "Hg (Aug 17, 2:50 am)
Average58 °F85%30.05 "Hg
* Reported Aug 5 6:20 pm — Aug 20 6:50 pm, Bristol. Weather by CustomWeather, © 2017

Note: Actual official high and low records may vary slightly from our data, if they occured in-between our weather recording intervals... More about our weather records

Advertising

Bristol Weather History for the Previous 24 Hours

Scroll right to see more
 ConditionsComfort  
Time TempWeatherWind HumidityBarometerVisibility
6:50 pm
Sun, Aug 20
57 °FDrizzle. Partly sunny.10 mph94%30.15 "HgN/A
6:20 pm57 °FPartly sunny.9 mph94%30.15 "HgN/A
5:50 pm57 °FPartly sunny.10 mph94%30.18 "HgN/A
5:20 pm57 °FLight rain. Mostly cloudy.9 mph94%30.18 "HgN/A
4:50 pm57 °FLight rain. Mostly cloudy.12 mph94%30.18 "Hg6 mi
4:20 pm57 °FRain. Mostly cloudy.9 mph94%30.21 "Hg3 mi
3:50 pm57 °FLight rain. Mostly cloudy.9 mph94%30.21 "HgN/A
3:20 pm59 °FLight rain. Broken clouds.13 mph82%30.21 "HgN/A
2:50 pm61 °FMore clouds than sun.9 mph77%30.21 "HgN/A
1:50 pm61 °FCloudy.9 mph72%30.24 "HgN/A
1:20 pm63 °FBroken clouds.7 mph64%30.24 "HgN/A
12:50 pm63 °FPassing clouds.8 mph64%30.24 "HgN/A
12:20 pm61 °FBroken clouds.10 mph68%30.24 "HgN/A
11:50 am61 °FBroken clouds.8 mph77%30.24 "HgN/A
11:20 am61 °FPassing clouds.8 mph72%30.24 "HgN/A
10:50 am61 °FPassing clouds.9 mph72%30.24 "HgN/A
10:20 am59 °FPassing clouds.7 mph77%30.24 "HgN/A
9:50 am59 °FCool.9 mph77%30.24 "HgN/A
9:20 am59 °FCool.9 mph77%30.24 "HgN/A
8:50 am57 °FCool.7 mph82%30.24 "HgN/A
7:50 am55 °FCool.5 mph88%30.21 "HgN/A
7:20 am54 °FScattered clouds.7 mph94%30.21 "HgN/A
6:50 am54 °FPartly sunny.5 mph94%30.21 "HgN/A
6:20 am54 °FMore clouds than sun.3 mph100%30.18 "HgN/A
5:50 am54 °FMostly cloudy.6 mph100%30.18 "HgN/A
5:20 am54 °FMostly cloudy.6 mph100%30.18 "HgN/A
4:50 am54 °FLight rain. Partly cloudy.7 mph94%30.18 "HgN/A
4:20 am54 °FPassing clouds.7 mph94%30.18 "HgN/A
3:50 am54 °FMostly cloudy.7 mph94%30.18 "HgN/A
3:20 am54 °FOvercast.6 mph94%30.18 "HgN/A
2:50 am54 °FPassing clouds.7 mph94%30.18 "HgN/A
2:20 am55 °FOvercast.5 mph88%30.18 "HgN/A
1:50 am55 °FOvercast.7 mph94%30.18 "HgN/A
1:20 am55 °FOvercast.5 mph88%30.18 "HgN/A
12:50 am55 °FOvercast.6 mph88%30.18 "HgN/A
12:20 am55 °FOvercast.7 mph88%30.18 "HgN/A
11:50 pm
Sat, Aug 19
55 °FPassing clouds.8 mph88%30.18 "HgN/A
11:20 pm54 °FPassing clouds.9 mph88%30.18 "HgN/A
10:50 pm54 °FCool.9 mph88%30.18 "HgN/A
10:20 pm54 °FPassing clouds.10 mph88%30.18 "HgN/A
9:50 pm54 °FCool.10 mph88%30.18 "HgN/A
9:20 pm55 °FCool.15 mph82%30.15 "HgN/A
8:50 pm55 °FCool.13 mph77%30.15 "HgN/A
8:20 pm55 °FPassing clouds.14 mph77%30.15 "HgN/A
Weather by CustomWeather, © 2017

See weather overviewHow to use our weather pages